Year,Month,Day,Hour,Minute,Value (Times are PST for temperature in C)
2020,07,05,00,00,13.30
2020,07,05,00,01,13.30
2020,07,05,00,02,13.30
2020,07,05,00,03,13.30
2020,07,05,00,04,13.20
2020,07,05,00,05,13.20
2020,07,05,00,06,13.10
2020,07,05,00,07,13.10
2020,07,05,00,08,13.10
2020,07,05,00,09,13.00
2020,07,05,00,10,13.00
2020,07,05,00,11,13.00
2020,07,05,00,12,12.90
2020,07,05,00,13,12.90
2020,07,05,00,14,12.90
2020,07,05,00,15,12.80
2020,07,05,00,16,12.80
2020,07,05,00,17,12.80
2020,07,05,00,18,12.80
2020,07,05,00,19,12.80
2020,07,05,00,20,12.70
2020,07,05,00,21,12.70
2020,07,05,00,22,12.70
2020,07,05,00,23,12.60
2020,07,05,00,24,12.60
2020,07,05,00,25,12.60
2020,07,05,00,26,12.60
2020,07,05,00,27,12.60
2020,07,05,00,28,12.50
2020,07,05,00,29,12.50
2020,07,05,00,30,12.50
2020,07,05,00,31,12.50
2020,07,05,00,32,12.50
2020,07,05,00,33,12.50
2020,07,05,00,34,12.50
2020,07,05,00,35,12.50
2020,07,05,00,36,12.40
2020,07,05,00,37,12.40
2020,07,05,00,38,12.40
2020,07,05,00,39,12.40
2020,07,05,00,40,12.30
2020,07,05,00,41,12.30
2020,07,05,00,42,12.30
2020,07,05,00,43,12.30
2020,07,05,00,44,12.30
2020,07,05,00,45,12.20
2020,07,05,00,46,12.20
2020,07,05,00,47,12.20
2020,07,05,00,48,12.10
2020,07,05,00,49,12.10
2020,07,05,00,50,12.10
2020,07,05,00,51,12.00
2020,07,05,00,52,12.00
2020,07,05,00,53,12.00
2020,07,05,00,54,11.90
2020,07,05,00,55,11.90
2020,07,05,00,56,11.90
2020,07,05,00,57,11.90
2020,07,05,00,58,11.80
2020,07,05,00,59,11.80
2020,07,05,01,00,11.80
2020,07,05,01,01,11.80
2020,07,05,01,02,11.80
2020,07,05,01,03,11.80
2020,07,05,01,04,11.80
2020,07,05,01,05,11.80
2020,07,05,01,06,11.70
2020,07,05,01,07,11.70
2020,07,05,01,08,11.70
2020,07,05,01,09,11.70
2020,07,05,01,10,11.70
2020,07,05,01,11,11.60
2020,07,05,01,12,11.60
2020,07,05,01,13,11.60
2020,07,05,01,14,11.60
2020,07,05,01,15,11.60
2020,07,05,01,16,11.60
2020,07,05,01,17,11.60
2020,07,05,01,18,11.60
2020,07,05,01,19,11.60
2020,07,05,01,20,11.40
2020,07,05,01,21,11.40
2020,07,05,01,22,11.40
2020,07,05,01,23,11.40
2020,07,05,01,24,11.40
2020,07,05,01,25,11.40
2020,07,05,01,26,11.40
2020,07,05,01,27,11.30
2020,07,05,01,28,11.30
2020,07,05,01,29,11.30
2020,07,05,01,30,11.30
2020,07,05,01,31,11.30
2020,07,05,01,32,11.20
2020,07,05,01,33,11.20
2020,07,05,01,34,11.20
2020,07,05,01,35,11.20
2020,07,05,01,36,11.20
2020,07,05,01,37,11.20
2020,07,05,01,38,11.20
2020,07,05,01,39,11.10
2020,07,05,01,40,11.10
2020,07,05,01,41,11.10
2020,07,05,01,42,11.10
2020,07,05,01,43,11.10
2020,07,05,01,44,11.10
2020,07,05,01,45,11.10
2020,07,05,01,46,11.10
2020,07,05,01,47,11.10
2020,07,05,01,48,11.10
2020,07,05,01,49,11.10
2020,07,05,01,50,11.10
2020,07,05,01,51,11.10
2020,07,05,01,52,11.10
2020,07,05,01,53,11.10
2020,07,05,01,54,11.10
2020,07,05,01,55,11.10
2020,07,05,01,56,11.10
2020,07,05,01,57,11.10
2020,07,05,01,58,11.10
2020,07,05,01,59,11.00
2020,07,05,02,00,10.90
2020,07,05,02,01,10.90
2020,07,05,02,02,10.90
2020,07,05,02,03,10.90
2020,07,05,02,04,10.90
2020,07,05,02,05,10.90
2020,07,05,02,06,10.90
2020,07,05,02,07,10.90
2020,07,05,02,08,10.90
2020,07,05,02,09,10.90
2020,07,05,02,10,10.90
2020,07,05,02,11,10.90
2020,07,05,02,12,10.90
2020,07,05,02,13,10.90
2020,07,05,02,14,10.80
2020,07,05,02,15,10.80
2020,07,05,02,16,10.80
2020,07,05,02,17,10.80
2020,07,05,02,18,10.80
2020,07,05,02,19,10.80
2020,07,05,02,20,10.70
2020,07,05,02,21,10.70
2020,07,05,02,22,10.70
2020,07,05,02,23,10.70
2020,07,05,02,24,10.70
2020,07,05,02,25,10.60
2020,07,05,02,26,10.60
2020,07,05,02,27,10.60
2020,07,05,02,28,10.60
2020,07,05,02,29,10.60
2020,07,05,02,30,10.60
2020,07,05,02,31,10.60
2020,07,05,02,32,10.60
2020,07,05,02,33,10.60
2020,07,05,02,34,10.60
2020,07,05,02,35,10.60
2020,07,05,02,36,10.60
2020,07,05,02,37,10.60
2020,07,05,02,38,10.60
2020,07,05,02,39,10.60
2020,07,05,02,40,10.60
2020,07,05,02,41,10.60
2020,07,05,02,42,10.60
2020,07,05,02,43,10.60
2020,07,05,02,44,10.60
2020,07,05,02,45,10.60
2020,07,05,02,46,10.60
2020,07,05,02,47,10.60
2020,07,05,02,48,10.60
2020,07,05,02,49,10.60
2020,07,05,02,50,10.50
2020,07,05,02,51,10.40
2020,07,05,02,52,10.40
2020,07,05,02,53,10.40
2020,07,05,02,54,10.40
2020,07,05,02,55,10.40
2020,07,05,02,56,10.40
2020,07,05,02,57,10.40
2020,07,05,02,58,10.40
2020,07,05,02,59,10.40
2020,07,05,03,00,10.40
2020,07,05,03,01,10.40
2020,07,05,03,02,10.40
2020,07,05,03,03,10.40
2020,07,05,03,04,10.30
2020,07,05,03,05,10.30
2020,07,05,03,06,10.30
2020,07,05,03,07,10.30
2020,07,05,03,08,10.30
2020,07,05,03,09,10.30
2020,07,05,03,10,10.30
2020,07,05,03,11,10.20
2020,07,05,03,12,10.20
2020,07,05,03,13,10.20
2020,07,05,03,14,10.20
2020,07,05,03,15,10.20
2020,07,05,03,16,10.20
2020,07,05,03,17,10.20
2020,07,05,03,18,10.10
2020,07,05,03,19,10.10
2020,07,05,03,20,10.10
2020,07,05,03,21,10.10
2020,07,05,03,22,10.10
2020,07,05,03,23,10.10
2020,07,05,03,24,10.10
2020,07,05,03,25,10.10
2020,07,05,03,26,10.10
2020,07,05,03,27,10.10
2020,07,05,03,28,10.10
2020,07,05,03,29,10.10
2020,07,05,03,30,10.10
2020,07,05,03,31,10.10
2020,07,05,03,32,10.00
2020,07,05,03,33,9.90
2020,07,05,03,34,9.90
2020,07,05,03,35,9.90
2020,07,05,03,36,9.90
2020,07,05,03,37,9.90
2020,07,05,03,38,9.90
2020,07,05,03,39,9.90
2020,07,05,03,40,9.90
2020,07,05,03,41,9.90
2020,07,05,03,42,9.90
2020,07,05,03,43,9.90
2020,07,05,03,44,9.90
2020,07,05,03,45,9.90
2020,07,05,03,46,9.90
2020,07,05,03,47,9.90
2020,07,05,03,48,9.90
2020,07,05,03,49,9.90
2020,07,05,03,50,9.90
2020,07,05,03,51,9.90
2020,07,05,03,52,9.90
2020,07,05,03,53,9.90
2020,07,05,03,54,9.90
2020,07,05,03,55,9.90
2020,07,05,03,56,9.90
2020,07,05,03,57,9.90
2020,07,05,03,58,9.90
2020,07,05,03,59,9.90
2020,07,05,04,00,9.80
2020,07,05,04,01,9.80
2020,07,05,04,02,9.80
2020,07,05,04,03,9.80
2020,07,05,04,04,9.80
2020,07,05,04,05,9.80
2020,07,05,04,06,9.80
2020,07,05,04,07,9.80
2020,07,05,04,08,9.80
2020,07,05,04,09,9.80
2020,07,05,04,10,9.80
2020,07,05,04,11,9.80
2020,07,05,04,12,9.80
2020,07,05,04,13,9.80
2020,07,05,04,14,9.80
2020,07,05,04,15,9.70
2020,07,05,04,16,9.70
2020,07,05,04,17,9.70
2020,07,05,04,18,9.70
2020,07,05,04,19,9.70
2020,07,05,04,20,9.70
2020,07,05,04,21,9.70
2020,07,05,04,22,9.70
2020,07,05,04,23,9.70
2020,07,05,04,24,9.70
2020,07,05,04,25,9.70
2020,07,05,04,26,9.70
2020,07,05,04,27,9.70
2020,07,05,04,28,9.70
2020,07,05,04,29,9.70
2020,07,05,04,30,9.70
2020,07,05,04,31,9.70
2020,07,05,04,32,9.60
2020,07,05,04,33,9.60
2020,07,05,04,34,9.60
2020,07,05,04,35,9.60
2020,07,05,04,36,9.50
2020,07,05,04,37,9.50
2020,07,05,04,38,9.50
2020,07,05,04,39,9.50
2020,07,05,04,40,9.50
2020,07,05,04,41,9.50
2020,07,05,04,42,9.50
2020,07,05,04,43,9.50
2020,07,05,04,44,9.50
2020,07,05,04,45,9.50
2020,07,05,04,46,9.50
2020,07,05,04,47,9.50
2020,07,05,04,48,9.50
2020,07,05,04,49,9.50
2020,07,05,04,50,9.50
2020,07,05,04,51,9.50
2020,07,05,04,52,9.50
2020,07,05,04,53,9.50
2020,07,05,04,54,9.50
2020,07,05,04,55,9.50
2020,07,05,04,56,9.40
2020,07,05,04,57,9.40
2020,07,05,04,58,9.40
2020,07,05,04,59,9.40
2020,07,05,05,00,9.40
2020,07,05,05,01,9.40
2020,07,05,05,02,9.30
2020,07,05,05,03,9.30
2020,07,05,05,04,9.30
2020,07,05,05,05,9.30
2020,07,05,05,06,9.30
2020,07,05,05,07,9.30
2020,07,05,05,08,9.30
2020,07,05,05,09,9.30
2020,07,05,05,10,9.30
2020,07,05,05,11,9.30
2020,07,05,05,12,9.30
2020,07,05,05,13,9.30
2020,07,05,05,14,9.30
2020,07,05,05,15,9.30
2020,07,05,05,16,9.30
2020,07,05,05,17,9.20
2020,07,05,05,18,9.20
2020,07,05,05,19,9.20
2020,07,05,05,20,9.20
2020,07,05,05,21,9.20
2020,07,05,05,22,9.20
2020,07,05,05,23,9.20
2020,07,05,05,24,9.20
2020,07,05,05,25,9.20
2020,07,05,05,26,9.20
2020,07,05,05,27,9.20
2020,07,05,05,28,9.20
2020,07,05,05,29,9.20
2020,07,05,05,30,9.20
2020,07,05,05,31,9.20
2020,07,05,05,32,9.20
2020,07,05,05,33,9.20
2020,07,05,05,34,9.20
2020,07,05,05,35,9.20
2020,07,05,05,36,9.20
2020,07,05,05,37,9.20
2020,07,05,05,38,9.20
2020,07,05,05,39,9.20
2020,07,05,05,40,9.20
2020,07,05,05,41,9.20
2020,07,05,05,42,9.20
2020,07,05,05,43,9.20
2020,07,05,05,44,9.20
2020,07,05,05,45,9.20
2020,07,05,05,46,9.20
2020,07,05,05,47,9.20
2020,07,05,05,48,9.20
2020,07,05,05,49,9.20
2020,07,05,05,50,9.20
2020,07,05,05,51,9.20
2020,07,05,05,52,9.20
2020,07,05,05,53,9.20
2020,07,05,05,54,9.20
2020,07,05,05,55,9.20
2020,07,05,05,56,9.20
2020,07,05,05,57,9.20
2020,07,05,05,58,9.20
2020,07,05,05,59,9.20
2020,07,05,06,00,9.20
2020,07,05,06,01,9.30
2020,07,05,06,02,9.30
2020,07,05,06,03,9.30
2020,07,05,06,04,9.40
2020,07,05,06,05,9.40
2020,07,05,06,06,9.40
2020,07,05,06,07,9.50
2020,07,05,06,08,9.50
2020,07,05,06,09,9.50
2020,07,05,06,10,9.60
2020,07,05,06,11,9.60
2020,07,05,06,12,9.60
2020,07,05,06,13,9.70
2020,07,05,06,14,9.70
2020,07,05,06,15,9.70
2020,07,05,06,16,9.70
2020,07,05,06,17,9.70
2020,07,05,06,18,9.70
2020,07,05,06,19,9.80
2020,07,05,06,20,9.80
2020,07,05,06,21,9.80
2020,07,05,06,22,9.80
2020,07,05,06,23,9.90
2020,07,05,06,24,9.90
2020,07,05,06,25,9.90
2020,07,05,06,26,9.90
2020,07,05,06,27,10.00
2020,07,05,06,28,10.10
2020,07,05,06,29,10.10
2020,07,05,06,30,10.10
2020,07,05,06,31,10.10
2020,07,05,06,32,10.10
2020,07,05,06,33,10.20
2020,07,05,06,34,10.20
2020,07,05,06,35,10.30
2020,07,05,06,36,10.40
2020,07,05,06,37,10.40
2020,07,05,06,38,10.50
2020,07,05,06,39,10.60
2020,07,05,06,40,10.60
2020,07,05,06,41,10.70
2020,07,05,06,42,10.70
2020,07,05,06,43,10.80
2020,07,05,06,44,10.90
2020,07,05,06,45,10.90
2020,07,05,06,46,11.10
2020,07,05,06,47,11.10
2020,07,05,06,48,11.10
2020,07,05,06,49,11.20
2020,07,05,06,50,11.20
2020,07,05,06,51,11.30
2020,07,05,06,52,11.40
2020,07,05,06,53,11.40
2020,07,05,06,54,11.50
2020,07,05,06,55,11.60
2020,07,05,06,56,11.60
2020,07,05,06,57,11.70
2020,07,05,06,58,11.80
2020,07,05,06,59,11.80
2020,07,05,07,00,11.80
2020,07,05,07,01,11.90
2020,07,05,07,02,12.00
2020,07,05,07,03,12.00
2020,07,05,07,04,12.10
2020,07,05,07,05,12.20
2020,07,05,07,06,12.20
2020,07,05,07,07,12.30
2020,07,05,07,08,12.30
2020,07,05,07,09,12.40
2020,07,05,07,10,12.50
2020,07,05,07,11,12.50
2020,07,05,07,12,12.60
2020,07,05,07,13,12.70
2020,07,05,07,14,12.70
2020,07,05,07,15,12.80
2020,07,05,07,16,12.80
2020,07,05,07,17,12.80
2020,07,05,07,18,12.80
2020,07,05,07,19,12.90
2020,07,05,07,20,12.90
2020,07,05,07,21,13.00
2020,07,05,07,22,13.10
2020,07,05,07,23,13.10
2020,07,05,07,24,13.20
2020,07,05,07,25,13.30
2020,07,05,07,26,13.30
2020,07,05,07,27,13.40
2020,07,05,07,28,13.50
2020,07,05,07,29,13.50
2020,07,05,07,30,13.60
2020,07,05,07,31,13.70
2020,07,05,07,32,13.70
2020,07,05,07,33,13.80
2020,07,05,07,34,13.90
2020,07,05,07,35,14.00
2020,07,05,07,36,14.10
2020,07,05,07,37,14.20
2020,07,05,07,38,14.40
2020,07,05,07,39,14.50
2020,07,05,07,40,14.60
2020,07,05,07,41,14.60
2020,07,05,07,42,14.70
2020,07,05,07,43,14.80
2020,07,05,07,44,14.80
2020,07,05,07,45,14.90
2020,07,05,07,46,14.90
2020,07,05,07,47,15.00
2020,07,05,07,48,15.10
2020,07,05,07,49,15.20
2020,07,05,07,50,15.30
2020,07,05,07,51,15.30
2020,07,05,07,52,15.30
2020,07,05,07,53,15.40
2020,07,05,07,54,15.40
2020,07,05,07,55,15.40
2020,07,05,07,56,15.50
2020,07,05,07,57,15.50
2020,07,05,07,58,15.50
2020,07,05,07,59,15.60
2020,07,05,08,00,15.70
2020,07,05,08,01,15.70
2020,07,05,08,02,15.70
2020,07,05,08,03,15.80
2020,07,05,08,04,15.80
2020,07,05,08,05,15.90
2020,07,05,08,06,15.90
2020,07,05,08,07,16.10
2020,07,05,08,08,16.10
2020,07,05,08,09,16.10
2020,07,05,08,10,16.10
2020,07,05,08,11,16.20
2020,07,05,08,12,16.10
2020,07,05,08,13,16.10
2020,07,05,08,14,16.10
2020,07,05,08,15,16.10
2020,07,05,08,16,16.10
2020,07,05,08,17,16.20
2020,07,05,08,18,16.30
2020,07,05,08,19,16.30
2020,07,05,08,20,16.40
2020,07,05,08,21,16.40
2020,07,05,08,22,16.40
2020,07,05,08,23,16.40
2020,07,05,08,24,16.40
2020,07,05,08,25,16.60
2020,07,05,08,26,16.60
2020,07,05,08,27,16.70
2020,07,05,08,28,16.70
2020,07,05,08,29,16.70
2020,07,05,08,30,16.70
2020,07,05,08,31,16.80
2020,07,05,08,32,16.90
2020,07,05,08,33,16.90
2020,07,05,08,34,17.00
2020,07,05,08,35,17.00
2020,07,05,08,36,17.10
2020,07,05,08,37,17.00
2020,07,05,08,38,16.90
2020,07,05,08,39,16.90
2020,07,05,08,40,16.80
2020,07,05,08,41,16.70
2020,07,05,08,42,16.70
2020,07,05,08,43,16.70
2020,07,05,08,44,16.70
2020,07,05,08,45,16.70
2020,07,05,08,46,16.70
2020,07,05,08,47,16.60
2020,07,05,08,48,16.50
2020,07,05,08,49,16.40
2020,07,05,08,50,16.40
2020,07,05,08,51,16.40
2020,07,05,08,52,16.40
2020,07,05,08,53,16.50
2020,07,05,08,54,16.60
2020,07,05,08,55,16.70
2020,07,05,08,56,16.70
2020,07,05,08,57,16.70
2020,07,05,08,58,16.70
2020,07,05,08,59,16.70
2020,07,05,09,00,16.70
2020,07,05,09,01,16.70
2020,07,05,09,02,16.70
2020,07,05,09,03,16.70
2020,07,05,09,04,16.60
2020,07,05,09,05,16.60
2020,07,05,09,06,16.70
2020,07,05,09,07,16.70
2020,07,05,09,08,16.70
2020,07,05,09,09,16.70
2020,07,05,09,10,16.70
2020,07,05,09,11,16.50
2020,07,05,09,12,16.40
2020,07,05,09,13,16.40
2020,07,05,09,14,16.40
2020,07,05,09,15,16.40
2020,07,05,09,16,16.40
2020,07,05,09,17,16.40
2020,07,05,09,18,16.40
2020,07,05,09,19,16.40
2020,07,05,09,20,16.40
2020,07,05,09,21,16.40
2020,07,05,09,22,16.40
2020,07,05,09,23,16.40
2020,07,05,09,24,16.40
2020,07,05,09,25,16.40
2020,07,05,09,26,16.40
2020,07,05,09,27,16.40
2020,07,05,09,28,16.40
2020,07,05,09,29,16.40
2020,07,05,09,30,16.40
2020,07,05,09,31,16.40
2020,07,05,09,32,16.50
2020,07,05,09,33,16.60
2020,07,05,09,34,16.70
2020,07,05,09,35,16.70
2020,07,05,09,36,16.70
2020,07,05,09,37,16.80
2020,07,05,09,38,16.90
2020,07,05,09,39,16.90
2020,07,05,09,40,16.90
2020,07,05,09,41,17.10
2020,07,05,09,42,17.10
2020,07,05,09,43,17.20
2020,07,05,09,44,17.10
2020,07,05,09,45,17.00
2020,07,05,09,46,17.10
2020,07,05,09,47,17.20
2020,07,05,09,48,17.30
2020,07,05,09,49,17.30
2020,07,05,09,50,17.30
2020,07,05,09,51,17.20
2020,07,05,09,52,17.20
2020,07,05,09,53,17.10
2020,07,05,09,54,17.00
2020,07,05,09,55,16.90
2020,07,05,09,56,17.00
2020,07,05,09,57,17.10
2020,07,05,09,58,17.20
2020,07,05,09,59,17.30
2020,07,05,10,00,17.30
2020,07,05,10,01,17.30
2020,07,05,10,02,17.30
2020,07,05,10,03,17.30
2020,07,05,10,04,17.30
2020,07,05,10,05,17.30
2020,07,05,10,06,17.30
2020,07,05,10,07,17.30
2020,07,05,10,08,17.30
2020,07,05,10,09,17.30
2020,07,05,10,10,17.30
2020,07,05,10,11,17.30
2020,07,05,10,12,17.50
2020,07,05,10,13,17.70
2020,07,05,10,14,17.70
2020,07,05,10,15,17.70
2020,07,05,10,16,17.70
2020,07,05,10,17,17.70
2020,07,05,10,18,17.70
2020,07,05,10,19,17.70
2020,07,05,10,20,17.70
2020,07,05,10,21,17.80
2020,07,05,10,22,17.80
2020,07,05,10,23,17.80
2020,07,05,10,24,17.80
2020,07,05,10,25,17.80
2020,07,05,10,26,17.90
2020,07,05,10,27,17.90
2020,07,05,10,28,17.80
2020,07,05,10,29,17.80
2020,07,05,10,30,17.80
2020,07,05,10,31,17.80
2020,07,05,10,32,17.80
2020,07,05,10,33,17.80
2020,07,05,10,34,17.80
2020,07,05,10,35,17.90
2020,07,05,10,36,17.90
2020,07,05,10,37,18.00
2020,07,05,10,38,18.10
2020,07,05,10,39,18.10
2020,07,05,10,40,18.10
2020,07,05,10,41,18.10
2020,07,05,10,42,18.10
2020,07,05,10,43,18.20
2020,07,05,10,44,18.20
2020,07,05,10,45,18.30
2020,07,05,10,46,18.40
2020,07,05,10,47,18.30
2020,07,05,10,48,18.10
2020,07,05,10,49,18.00
2020,07,05,10,50,17.90
2020,07,05,10,51,17.80
2020,07,05,10,52,17.80
2020,07,05,10,53,17.80
2020,07,05,10,54,17.70
2020,07,05,10,55,17.60
2020,07,05,10,56,17.60
2020,07,05,10,57,17.70
2020,07,05,10,58,17.90
2020,07,05,10,59,17.90
2020,07,05,11,00,18.00
2020,07,05,11,01,18.10
2020,07,05,11,02,18.10
2020,07,05,11,03,18.20
2020,07,05,11,04,18.20
2020,07,05,11,05,18.20
2020,07,05,11,06,18.20
2020,07,05,11,07,18.20
2020,07,05,11,08,18.10
2020,07,05,11,09,18.00
2020,07,05,11,10,17.90
2020,07,05,11,11,17.90
2020,07,05,11,12,18.00
2020,07,05,11,13,17.90
2020,07,05,11,14,17.90
2020,07,05,11,15,17.90
2020,07,05,11,16,17.90
2020,07,05,11,17,17.80
2020,07,05,11,18,17.70
2020,07,05,11,19,17.60
2020,07,05,11,20,17.60
2020,07,05,11,21,17.50
2020,07,05,11,22,17.50
2020,07,05,11,23,17.50
2020,07,05,11,24,17.40
2020,07,05,11,25,17.50
2020,07,05,11,26,17.50
2020,07,05,11,27,17.60
2020,07,05,11,28,17.50
2020,07,05,11,29,17.50
2020,07,05,11,30,17.30
2020,07,05,11,31,17.30
2020,07,05,11,32,17.30
2020,07,05,11,33,17.30
2020,07,05,11,34,17.30
2020,07,05,11,35,17.30
2020,07,05,11,36,17.30
2020,07,05,11,37,17.30
2020,07,05,11,38,17.50
2020,07,05,11,39,17.60
2020,07,05,11,40,17.80
2020,07,05,11,41,17.90
2020,07,05,11,42,18.10
2020,07,05,11,43,18.20
2020,07,05,11,44,18.10
2020,07,05,11,45,18.10
2020,07,05,11,46,18.10
2020,07,05,11,47,18.10
2020,07,05,11,48,18.20
2020,07,05,11,49,18.20
2020,07,05,11,50,18.20
2020,07,05,11,51,18.40
2020,07,05,11,52,18.50
2020,07,05,11,53,18.40
2020,07,05,11,54,18.30
2020,07,05,11,55,18.20
2020,07,05,11,56,18.30
2020,07,05,11,57,18.40
2020,07,05,11,58,18.50
2020,07,05,11,59,18.60
2020,07,05,12,00,18.60
2020,07,05,12,01,18.70
2020,07,05,12,02,18.90
2020,07,05,12,03,18.90
2020,07,05,12,04,18.80
2020,07,05,12,05,18.80
2020,07,05,12,06,18.90
2020,07,05,12,07,18.90
2020,07,05,12,08,18.90
2020,07,05,12,09,18.90
2020,07,05,12,10,18.80
2020,07,05,12,11,18.70
2020,07,05,12,12,18.60
2020,07,05,12,13,18.70
2020,07,05,12,14,18.80
2020,07,05,12,15,18.70
2020,07,05,12,16,18.70
2020,07,05,12,17,18.70
2020,07,05,12,18,18.80
2020,07,05,12,19,18.90
2020,07,05,12,20,18.90
2020,07,05,12,21,18.90
2020,07,05,12,22,18.80
2020,07,05,12,23,18.70
2020,07,05,12,24,18.60
2020,07,05,12,25,18.40
2020,07,05,12,26,18.20
2020,07,05,12,27,18.20
2020,07,05,12,28,18.30
2020,07,05,12,29,18.40
2020,07,05,12,30,18.60
2020,07,05,12,31,18.80
2020,07,05,12,32,19.00
2020,07,05,12,33,19.10
2020,07,05,12,34,19.10
2020,07,05,12,35,19.20
2020,07,05,12,36,19.30
2020,07,05,12,37,19.40
2020,07,05,12,38,19.50
2020,07,05,12,39,19.60
2020,07,05,12,40,19.60
2020,07,05,12,41,19.50
2020,07,05,12,42,19.30
2020,07,05,12,43,19.10
2020,07,05,12,44,18.90
2020,07,05,12,45,18.90
2020,07,05,12,46,18.90
2020,07,05,12,47,18.80
2020,07,05,12,48,18.80
2020,07,05,12,49,18.70
2020,07,05,12,50,18.70
2020,07,05,12,51,18.70
2020,07,05,12,52,18.70
2020,07,05,12,53,18.70
2020,07,05,12,54,18.70
2020,07,05,12,55,18.70
2020,07,05,12,56,18.70
2020,07,05,12,57,18.60
2020,07,05,12,58,18.60
2020,07,05,12,59,18.60
2020,07,05,13,00,18.60
2020,07,05,13,01,18.50
2020,07,05,13,02,18.40
2020,07,05,13,03,18.40
2020,07,05,13,04,18.40
2020,07,05,13,05,18.50
2020,07,05,13,06,18.50
2020,07,05,13,07,18.60
2020,07,05,13,08,18.70
2020,07,05,13,09,18.80
2020,07,05,13,10,18.90
2020,07,05,13,11,19.10
2020,07,05,13,12,19.30
2020,07,05,13,13,19.40
2020,07,05,13,14,19.60
2020,07,05,13,15,19.70
2020,07,05,13,16,19.80
2020,07,05,13,17,20.00
2020,07,05,13,18,20.10
2020,07,05,13,19,20.20
2020,07,05,13,20,20.20
2020,07,05,13,21,20.20
2020,07,05,13,22,20.20
2020,07,05,13,23,20.20
2020,07,05,13,24,20.20
2020,07,05,13,25,20.20
2020,07,05,13,26,20.00
2020,07,05,13,27,19.90
2020,07,05,13,28,19.80
2020,07,05,13,29,19.80
2020,07,05,13,30,19.90
2020,07,05,13,31,19.90
2020,07,05,13,32,20.00
2020,07,05,13,33,20.20
2020,07,05,13,34,20.10
2020,07,05,13,35,20.10
2020,07,05,13,36,20.00
2020,07,05,13,37,20.00
2020,07,05,13,38,20.10
2020,07,05,13,39,20.10
2020,07,05,13,40,20.10
2020,07,05,13,41,20.10
2020,07,05,13,42,19.90
2020,07,05,13,43,19.90
2020,07,05,13,44,20.00
2020,07,05,13,45,20.10
2020,07,05,13,46,20.20
2020,07,05,13,47,20.30
2020,07,05,13,48,20.40
2020,07,05,13,49,20.50
2020,07,05,13,50,20.30
2020,07,05,13,51,20.20
2020,07,05,13,52,20.20
2020,07,05,13,53,20.20
2020,07,05,13,54,20.20
2020,07,05,13,55,20.20
2020,07,05,13,56,20.20
2020,07,05,13,57,20.30
2020,07,05,13,58,20.30
2020,07,05,13,59,20.40
2020,07,05,14,00,20.50
2020,07,05,14,01,20.70
2020,07,05,14,02,20.90
2020,07,05,14,03,21.00
2020,07,05,14,04,21.00
2020,07,05,14,05,21.00
2020,07,05,14,06,20.90
2020,07,05,14,07,20.90
2020,07,05,14,08,20.80
2020,07,05,14,09,20.70
2020,07,05,14,10,20.70
2020,07,05,14,11,20.70
2020,07,05,14,12,20.50
2020,07,05,14,13,20.40
2020,07,05,14,14,20.20
2020,07,05,14,15,20.10
2020,07,05,14,16,20.00
2020,07,05,14,17,19.90
2020,07,05,14,18,19.80
2020,07,05,14,19,19.70
2020,07,05,14,20,19.80
2020,07,05,14,21,19.80
2020,07,05,14,22,20.00
2020,07,05,14,23,20.10
2020,07,05,14,24,20.20
2020,07,05,14,25,20.40
2020,07,05,14,26,20.60
2020,07,05,14,27,20.80
2020,07,05,14,28,20.90
2020,07,05,14,29,21.10
2020,07,05,14,30,21.20
2020,07,05,14,31,21.20
2020,07,05,14,32,21.00
2020,07,05,14,33,21.00
2020,07,05,14,34,20.90
2020,07,05,14,35,20.90
2020,07,05,14,36,20.90
2020,07,05,14,37,20.90
2020,07,05,14,38,20.90
2020,07,05,14,39,20.80
2020,07,05,14,40,20.80
2020,07,05,14,41,20.80
2020,07,05,14,42,20.80
2020,07,05,14,43,20.80
2020,07,05,14,44,20.70
2020,07,05,14,45,20.60
2020,07,05,14,46,20.60
2020,07,05,14,47,20.60
2020,07,05,14,48,20.70
2020,07,05,14,49,20.70
2020,07,05,14,50,20.70
2020,07,05,14,51,20.70
2020,07,05,14,52,20.60
2020,07,05,14,53,20.60
2020,07,05,14,54,20.60
2020,07,05,14,55,20.70
2020,07,05,14,56,20.80
2020,07,05,14,57,20.90
2020,07,05,14,58,21.00
2020,07,05,14,59,21.10
2020,07,05,15,00,21.00
2020,07,05,15,01,21.00
2020,07,05,15,02,20.90
2020,07,05,15,03,20.80
2020,07,05,15,04,20.70
2020,07,05,15,05,20.60
2020,07,05,15,06,20.50
2020,07,05,15,07,20.60
2020,07,05,15,08,20.60
2020,07,05,15,09,20.70
2020,07,05,15,10,20.80
2020,07,05,15,11,20.80
2020,07,05,15,12,20.80
2020,07,05,15,13,20.90
2020,07,05,15,14,21.00
2020,07,05,15,15,21.10
2020,07,05,15,16,21.00
2020,07,05,15,17,21.10
2020,07,05,15,18,21.00
2020,07,05,15,19,20.90
2020,07,05,15,20,20.90
2020,07,05,15,21,21.00
2020,07,05,15,22,21.00
2020,07,05,15,23,21.00
2020,07,05,15,24,21.00
2020,07,05,15,25,21.10
2020,07,05,15,26,21.10
2020,07,05,15,27,21.00
2020,07,05,15,28,21.00
2020,07,05,15,29,21.00
2020,07,05,15,30,21.10
2020,07,05,15,31,21.10
2020,07,05,15,32,21.10
2020,07,05,15,33,21.20
2020,07,05,15,34,21.20
2020,07,05,15,35,21.30
2020,07,05,15,36,21.10
2020,07,05,15,37,21.00
2020,07,05,15,38,20.90
2020,07,05,15,39,20.90
2020,07,05,15,40,20.80
2020,07,05,15,41,20.80
2020,07,05,15,42,20.70
2020,07,05,15,43,20.60
2020,07,05,15,44,20.60
2020,07,05,15,45,20.50
2020,07,05,15,46,20.60
2020,07,05,15,47,20.60
2020,07,05,15,48,20.70
2020,07,05,15,49,20.80
2020,07,05,15,50,20.80
2020,07,05,15,51,20.80
2020,07,05,15,52,20.90
2020,07,05,15,53,20.80
2020,07,05,15,54,20.80
2020,07,05,15,55,20.90
2020,07,05,15,56,20.90
2020,07,05,15,57,20.90
2020,07,05,15,58,21.00
2020,07,05,15,59,21.00
2020,07,05,16,00,21.10
2020,07,05,16,01,21.10
2020,07,05,16,02,21.00
2020,07,05,16,03,21.00
2020,07,05,16,04,20.90
2020,07,05,16,05,20.80
2020,07,05,16,06,20.80
2020,07,05,16,07,20.70
2020,07,05,16,08,20.80
2020,07,05,16,09,20.80
2020,07,05,16,10,20.90
2020,07,05,16,11,20.90
2020,07,05,16,12,20.90
2020,07,05,16,13,21.00
2020,07,05,16,14,21.00
2020,07,05,16,15,21.00
2020,07,05,16,16,21.00
2020,07,05,16,17,21.00
2020,07,05,16,18,20.90
2020,07,05,16,19,20.90
2020,07,05,16,20,20.70
2020,07,05,16,21,20.60
2020,07,05,16,22,20.60
2020,07,05,16,23,20.50
2020,07,05,16,24,20.40
2020,07,05,16,25,20.30
2020,07,05,16,26,20.20
2020,07,05,16,27,20.10
2020,07,05,16,28,19.90
2020,07,05,16,29,19.80
2020,07,05,16,30,19.70
2020,07,05,16,31,19.60
2020,07,05,16,32,19.50
2020,07,05,16,33,19.40
2020,07,05,16,34,19.50
2020,07,05,16,35,19.50
2020,07,05,16,36,19.50
2020,07,05,16,37,19.60
2020,07,05,16,38,19.60
2020,07,05,16,39,19.70
2020,07,05,16,40,19.70
2020,07,05,16,41,19.80
2020,07,05,16,42,19.80
2020,07,05,16,43,19.90
2020,07,05,16,44,19.90
2020,07,05,16,45,19.90
2020,07,05,16,46,19.90
2020,07,05,16,47,19.90
2020,07,05,16,48,20.00
2020,07,05,16,49,20.10
2020,07,05,16,50,20.20
2020,07,05,16,51,20.20
2020,07,05,16,52,20.20
2020,07,05,16,53,20.00
2020,07,05,16,54,19.90
2020,07,05,16,55,19.90
2020,07,05,16,56,19.90
2020,07,05,16,57,19.90
2020,07,05,16,58,20.10
2020,07,05,16,59,20.20
2020,07,05,17,00,20.30
2020,07,05,17,01,20.40
2020,07,05,17,02,20.40
2020,07,05,17,03,20.40
2020,07,05,17,04,20.20
2020,07,05,17,05,20.20
2020,07,05,17,06,20.10
2020,07,05,17,07,20.10
2020,07,05,17,08,20.00
2020,07,05,17,09,19.90
2020,07,05,17,10,19.90
2020,07,05,17,11,19.80
2020,07,05,17,12,19.70
2020,07,05,17,13,19.60
2020,07,05,17,14,19.50
2020,07,05,17,15,19.40
2020,07,05,17,16,19.30
2020,07,05,17,17,19.20
2020,07,05,17,18,19.20
2020,07,05,17,19,19.20
2020,07,05,17,20,19.20
2020,07,05,17,21,19.20
2020,07,05,17,22,19.20
2020,07,05,17,23,19.20
2020,07,05,17,24,19.30
2020,07,05,17,25,19.30
2020,07,05,17,26,19.30
2020,07,05,17,27,19.40